Flag for Greenland Weather past 2 weeks in Ittoqqortoormiit, Greenland

Now
18 °F

Overcast.


Feels Like: 11 °F
Forecast: N/A
Wind: 5 mph from Northeast

Location: Scoresbysund

Current Time: Mar 3, 2015 at 8:20:32 PM

Latest Report: Mar 3, 2015 at 7:00 PM


Visibility: 31 mi

Pressure: 29.50 "Hg

Humidity: 93%

Dew point: 16 °F

Location of IttoqqortoormiitLocation

Historic Weather in Ittoqqortoormiit — Graph

°F

Ittoqqortoormiit temperature yesterday

Maximum temperature yesterday: 23 °F (at 11:00 PM)
Minimum temperature yesterday: 15 °F (at 2:00 AM)
Average temperature yesterday: 18 °F

Past Weeks' High & Low Weather Summary

 TemperatureHumidityPressure
High26 °F (Feb 28, 12:00 PM)99% (Feb 27, 2:00 PM)29.99 "Hg (Feb 27, 2:00 PM)
Low-15 °F (Feb 22, 10:00 PM)34% (Feb 22, 9:00 AM)28.97 "Hg (Feb 16, 5:00 PM)
Average6 °F62%29.49 "Hg
* Reported Feb 16 5:00 PM — Mar 3 5:00 PM, Ittoqqortoormiit, Weather by CustomWeather, © 2015

Note: Actual official high and low records may vary slightly from our data, if they occured in-between our weather recording intervals... More about our weather records

Advertising

Ittoqqortoormiit weather history for previous 24 hours

 ConditionsComfort  
Time TempWeatherWind HumidityBarometerVisibility
5:00 PM
Tue, Mar 3
21 °FOvercast.6 mph91%29.41 "Hg31 mi
4:00 PM23 °FOvercast.2 mph80%29.38 "Hg31 mi
3:00 PM23 °FOvercast.6 mph81%29.35 "Hg31 mi
2:00 PM25 °FOvercast.13 mph68%29.35 "Hg31 mi
1:00 PM25 °FSnow flurries. Overcast.17 mph65%29.32 "Hg11 mi
12:00 PM25 °FSnow flurries. Overcast.20 mph57%29.29 "Hg4 mi
11:00 AM24 °FPartly sunny.13 mph60%29.26 "Hg19 mi
10:00 AM22 °FSnow flurries. Scattered clouds.15 mph63%29.26 "Hg2 mi
9:00 AM23 °FSnow flurries. Scattered clouds.13 mph74%29.23 "Hg2 mi
8:00 AM24 °FSnow flurries. Overcast.17 mph71%29.21 "Hg2 mi
7:00 AM22 °FSnow flurries. Overcast.16 mph76%29.18 "Hg11 mi
6:00 AM21 °FOvercast.3 mph78%29.18 "Hg31 mi
5:00 AM19 °FSnow flurries. Overcast.6 mph86%29.18 "Hg19 mi
4:00 AM19 °FLight snow. Overcast.9 mph87%29.18 "Hg4 mi
3:00 AM21 °FLight snow. Overcast.14 mph80%29.15 "Hg3 mi
2:00 AM20 °FLight snow. Overcast.14 mph76%29.15 "Hg1 mi
1:00 AM20 °FSnow flurries. Overcast.20 mph71%29.12 "Hg2 mi
12:00 AM22 °FSnow flurries. Overcast.17 mph62%29.12 "Hg1 mi
11:00 PM
Mon, Mar 2
23 °FSnow flurries. Overcast.21 mph59%29.12 "Hg4 mi
10:00 PM21 °FLight snow. Overcast.28 mph51%29.09 "Hg1 mi
9:00 PM20 °FLight snow. Overcast.23 mph54%29.12 "Hg2 mi
8:00 PM20 °FOvercast.16 mph50%29.12 "Hg25 mi
Weather by CustomWeather, © 2015

See weather overviewHow to use our weather pages